TimeCST,TemperatureF,Dew PointF,Humidity,Sea Level PressureIn,VisibilityMPH,Wind Direction,Wind SpeedMPH,Gust SpeedMPH,PrecipitationIn,Events,Conditions,WindDirDegrees,DateUTC
12:35 AM,64.4,57.2,77,29.96,10.0,SSW,11.5,-,N/A,,Mostly Cloudy,200,2012-12-04 06:35:00
12:55 AM,64.4,57.2,77,29.97,10.0,NW,8.1,-,N/A,Thunderstorm,Overcast,310,2012-12-04 06:55:00
1:16 AM,62.6,57.2,82,29.98,9.0,WNW,4.6,-,0.01,Thunderstorm,Thunderstorm,290,2012-12-04 07:16:00
1:35 AM,60.8,57.2,88,29.97,10.0,WNW,4.6,-,0.03,Thunderstorm,Overcast,300,2012-12-04 07:35:00
1:55 AM,62.6,57.2,82,29.98,8.0,Calm,Calm,-,0.11,Thunderstorm,Overcast,0,2012-12-04 07:55:00
2:55 AM,60.8,57.2,88,29.99,10.0,West,4.6,-,0.30,Thunderstorm,Thunderstorm,270,2012-12-04 08:55:00
3:15 AM,60.8,57.2,88,29.99,9.0,NNW,5.8,-,0.04,Thunderstorm,Overcast,340,2012-12-04 09:15:00
3:35 AM,60.8,57.2,88,29.99,7.0,Calm,Calm,-,0.21,Thunderstorm,Thunderstorm,0,2012-12-04 09:35:00
3:55 AM,59.0,55.4,88,30.00,5.0,North,12.7,17.3,0.42,Thunderstorm,Thunderstorm,360,2012-12-04 09:55:00
3:56 AM,57.2,55.4,94,30.00,5.0,North,11.5,17.3,N/A,Thunderstorm,Thunderstorm,360,2012-12-04 09:56:00
4:15 AM,55.4,51.8,88,30.01,4.0,North,13.8,-,0.24,Thunderstorm,Thunderstorm,360,2012-12-04 10:15:00
4:55 AM,51.8,48.2,88,30.01,10.0,North,17.3,21.9,0.41,Thunderstorm,Overcast,10,2012-12-04 10:55:00
5:15 AM,51.8,48.2,88,30.03,10.0,North,15.0,20.7,N/A,,Overcast,10,2012-12-04 11:15:00
5:35 AM,51.8,48.2,88,30.05,10.0,North,13.8,-,N/A,,Overcast,10,2012-12-04 11:35:00
6:35 AM,51.8,46.4,82,30.07,10.0,North,15.0,21.9,N/A,,Overcast,10,2012-12-04 12:35:00
7:35 AM,51.8,44.6,76,30.12,10.0,North,10.4,-,N/A,,Overcast,10,2012-12-04 13:35:00
7:55 AM,51.8,44.6,76,30.13,10.0,North,12.7,-,N/A,,Overcast,10,2012-12-04 13:55:00
8:35 AM,51.8,44.6,76,30.15,10.0,North,12.7,-,N/A,,Overcast,360,2012-12-04 14:35:00
8:55 AM,51.8,44.6,76,30.16,10.0,North,11.5,-,N/A,,Overcast,10,2012-12-04 14:55:00
9:16 AM,51.8,42.8,71,30.16,10.0,North,15.0,-,N/A,,Overcast,360,2012-12-04 15:16:00
9:35 AM,51.8,41.0,67,30.17,10.0,North,10.4,17.3,N/A,,Mostly Cloudy,10,2012-12-04 15:35:00
9:55 AM,53.6,42.8,67,30.19,10.0,NNE,15.0,-,N/A,,Partly Cloudy,30,2012-12-04 15:55:00
10:35 AM,55.4,41.0,58,30.20,10.0,NNE,13.8,-,N/A,,Clear,20,2012-12-04 16:35:00
11:35 AM,57.2,42.8,59,30.20,10.0,North,12.7,-,N/A,,Clear,10,2012-12-04 17:35:00
12:15 PM,57.2,37.4,48,30.20,10.0,North,11.5,-,N/A,,Clear,10,2012-12-04 18:15:00
12:35 PM,59.0,35.6,42,30.20,10.0,NNE,13.8,17.3,N/A,,Clear,30,2012-12-04 18:35:00
12:55 PM,60.8,35.6,39,30.19,10.0,NNE,10.4,-,N/A,,Clear,20,2012-12-04 18:55:00
1:15 PM,60.8,35.6,39,30.19,10.0,North,11.5,-,N/A,,Clear,10,2012-12-04 19:15:00
1:35 PM,59.0,35.6,42,30.20,10.0,North,13.8,17.3,N/A,,Clear,360,2012-12-04 19:35:00
2:15 PM,60.8,33.8,36,30.19,10.0,NNE,12.7,-,N/A,,Clear,30,2012-12-04 20:15:00
2:35 PM,59.0,35.6,42,30.19,10.0,North,12.7,-,N/A,,Clear,360,2012-12-04 20:35:00
2:55 PM,59.0,33.8,39,30.20,10.0,North,11.5,-,N/A,,Clear,360,2012-12-04 20:55:00
3:15 PM,59.0,33.8,39,30.21,10.0,North,13.8,-,N/A,,Clear,10,2012-12-04 21:15:00
3:56 PM,57.2,35.6,44,30.22,10.0,NNE,8.1,-,N/A,,Clear,20,2012-12-04 21:56:00
4:15 PM,57.2,33.8,41,30.23,10.0,North,11.5,-,N/A,,Clear,10,2012-12-04 22:15:00
4:35 PM,57.2,33.8,41,30.24,10.0,North,11.5,-,N/A,,Clear,10,2012-12-04 22:35:00
4:55 PM,55.4,33.8,44,30.24,10.0,North,9.2,-,N/A,,Clear,10,2012-12-04 22:55:00
5:16 PM,53.6,33.8,47,30.24,10.0,North,8.1,-,N/A,,Clear,10,2012-12-04 23:16:00
5:35 PM,53.6,33.8,47,30.24,10.0,North,8.1,-,N/A,,Clear,10,2012-12-04 23:35:00
5:55 PM,51.8,33.8,50,30.25,10.0,North,8.1,-,N/A,,Clear,10,2012-12-04 23:55:00
6:15 PM,51.8,33.8,50,30.24,10.0,North,5.8,-,N/A,,Clear,10,2012-12-05 00:15:00
6:35 PM,50.0,33.8,54,30.25,10.0,North,8.1,-,N/A,,Clear,10,2012-12-05 00:35:00
6:55 PM,48.2,32.0,54,30.25,10.0,North,6.9,-,N/A,,Clear,10,2012-12-05 00:55:00
7:15 PM,48.2,33.8,58,30.25,10.0,NNE,5.8,-,N/A,,Clear,20,2012-12-05 01:15:00
7:35 PM,48.2,33.8,58,30.26,10.0,North,4.6,-,N/A,,Clear,10,2012-12-05 01:35:00
7:36 PM,48.2,33.8,58,30.26,10.0,North,4.6,-,N/A,,Clear,10,2012-12-05 01:36:00
7:55 PM,48.2,30.2,50,30.26,10.0,NE,4.6,-,N/A,,Clear,40,2012-12-05 01:55:00
8:15 PM,48.2,30.2,50,30.27,10.0,ENE,4.6,-,N/A,,Clear,70,2012-12-05 02:15:00
8:35 PM,46.4,32.0,57,30.28,10.0,NE,3.5,-,N/A,,Clear,40,2012-12-05 02:35:00
8:55 PM,46.4,32.0,57,30.29,10.0,NE,3.5,-,N/A,,Clear,50,2012-12-05 02:55:00
9:15 PM,46.4,32.0,57,30.29,10.0,NE,3.5,-,N/A,,Clear,40,2012-12-05 03:15:00
10:15 PM,42.8,32.0,66,30.31,10.0,ENE,3.5,-,N/A,,Clear,60,2012-12-05 04:15:00
10:35 PM,44.6,32.0,61,30.31,10.0,NE,3.5,-,N/A,,Clear,50,2012-12-05 04:35:00
10:55 PM,42.8,33.8,70,30.31,10.0,NNE,3.5,-,N/A,,Clear,30,2012-12-05 04:55:00
11:35 PM,42.8,32.0,66,30.31,10.0,NE,3.5,-,N/A,,Clear,50,2012-12-05 05:35:00
11:55 PM,42.8,30.2,61,30.31,10.0,ENE,3.5,-,N/A,,Clear,70,2012-12-05 05:55:00